Location: Lafig�re
(44.4503°N, 4.0357°E)
Time: 21:33:42
(UTC+00:00)

Envisat - Visible Passes

Search period start: 28 November 2021 00:00
Search period end: 08 December 2021 00:00
Orbit: 764 x 766 km, 98.2° (Epoch: 28 November)

Date Brightness Start Highest point End Pass type
(mag) Time Alt. Az. Time Alt. Az. Time Alt. Az.
28 Nov 4.1 04:17:48 10° NNE 04:22:39 42° E 04:27:27 10° S visible
28 Nov 3.9 05:57:17 10° N 06:01:26 26° WNW 06:05:35 10° WSW visible
28 Nov 6.0 17:15:11 10° SW 17:18:16 16° W 17:21:22 10° NW visible
29 Nov 5.4 03:41:48 10° NE 03:45:31 20° E 03:49:12 10° SE visible
29 Nov 3.1 05:19:53 10° N 05:24:50 53° WNW 05:29:45 10° SSW visible
29 Nov 5.0 16:36:29 10° SSW 16:41:04 34° W 16:45:41 10° NNW visible
30 Nov 3.1 04:42:56 10° NNE 04:48:02 73° ESE 04:53:06 10° S visible
30 Nov 4.4 06:23:22 10° NNW 06:26:27 16° WNW 06:29:31 10° W visible
01 Dec 4.6 04:06:25 10° NNE 04:11:02 34° E 04:15:36 10° SSE visible
01 Dec 3.6 05:45:31 10° N 05:49:59 32° WNW 05:54:26 10° SW visible
01 Dec 5.8 17:02:53 10° SW 17:06:36 20° W 17:10:20 10° NW visible
02 Dec 5.7 03:30:46 10° NE 03:33:49 16° E 03:36:52 10° SE visible
02 Dec 2.9 05:08:15 10° N 05:13:19 67° WNW 05:18:21 10° SSW visible
03 Dec 3.5 04:31:26 10° NNE 04:36:27 58° E 04:41:26 10° S visible
03 Dec 4.2 06:11:24 10° NNW 06:15:02 20° WNW 06:18:39 10° WSW visible
03 Dec 6.2 17:30:32 10° WSW 17:32:13 11° W 17:33:54 10° WNW visible
04 Dec 5.0 03:55:06 10° NE 03:59:24 27° E 04:03:39 10° SSE visible
04 Dec 3.4 05:33:47 10° N 05:38:30 39° WNW 05:43:13 10° SW visible
04 Dec 5.5 16:50:46 10° SSW 16:54:56 25° W 16:59:08 10° NW visible
05 Dec 6.0 03:20:03 10° ENE 03:22:07 12° E 03:24:11 10° ESE visible
05 Dec 2.9 04:56:40 10° NNE 05:01:47 84° WNW 05:06:51 10° SSW visible
06 Dec 4.0 04:19:58 10° NNE 04:24:52 45° E 04:29:43 10° S visible
06 Dec 4.0 05:59:33 10° N 06:03:36 24° WNW 06:07:39 10° WSW visible
06 Dec 6.0 17:17:40 10° WSW 17:20:31 15° W 17:23:22 10° NW visible
07 Dec 5.3 03:43:52 10° NE 03:47:44 21° E 03:51:35 10° SE visible
07 Dec 3.1 05:22:07 10° N 05:27:00 49° WNW 05:31:53 10° SW visible
07 Dec 5.1 16:38:47 10° SSW 16:43:17 32° W 16:47:49 10° NNW visible
